Time,TemperatureF,DewpointF,PressureIn,WindDirection,WindDirectionDegrees,WindSpeedMPH,WindSpeedGustMPH,Humidity,HourlyPrecipIn,Conditions,Clouds,dailyrainin,SolarRadiationWatts/m^2,SoftwareType,DateUTC
2013-06-25 00:13:00,76.8,72.0,30.10,ESE,115,0.0,0.0,86,0.00,,,0.00,0,weatherlink.com 1.10,2013-06-25 04:13:00,
2013-06-25 00:28:00,76.7,72.0,30.10,ESE,115,0.0,0.0,86,0.00,,,0.00,0,weatherlink.com 1.10,2013-06-25 04:28:00,
2013-06-25 00:43:00,76.5,72.0,30.09,ESE,115,0.0,0.0,87,0.00,,,0.00,0,weatherlink.com 1.10,2013-06-25 04:43:00,
2013-06-25 00:58:00,76.5,73.0,30.07,ESE,115,0.0,0.0,88,0.00,,,0.00,0,weatherlink.com 1.10,2013-06-25 04:58:00,
2013-06-25 01:13:00,76.3,73.0,30.07,ESE,115,0.0,0.0,88,0.00,,,0.00,0,weatherlink.com 1.10,2013-06-25 05:13:00,
2013-06-25 01:28:00,76.3,73.0,30.06,ESE,115,0.0,0.0,89,0.00,,,0.00,0,weatherlink.com 1.10,2013-06-25 05:28:00,
2013-06-25 01:43:00,76.3,73.0,30.05,ESE,115,0.0,0.0,90,0.00,,,0.00,0,weatherlink.com 1.10,2013-06-25 05:43:00,
2013-06-25 01:58:00,76.1,73.0,30.05,ESE,115,0.0,0.0,90,0.00,,,0.00,0,weatherlink.com 1.10,2013-06-25 05:58:00,
2013-06-25 02:13:00,75.8,73.0,30.05,ESE,115,0.0,0.0,90,0.00,,,0.00,0,weatherlink.com 1.10,2013-06-25 06:13:00,
2013-06-25 02:28:00,75.6,73.0,30.05,ESE,115,0.0,0.0,91,0.00,,,0.00,0,weatherlink.com 1.10,2013-06-25 06:28:00,
2013-06-25 02:43:00,75.4,73.0,30.05,ESE,115,0.0,0.0,91,0.00,,,0.00,0,weatherlink.com 1.10,2013-06-25 06:43:00,
2013-06-25 02:58:00,75.3,73.0,30.04,ESE,115,0.0,0.0,91,0.00,,,0.00,0,weatherlink.com 1.10,2013-06-25 06:58:00,
2013-06-25 03:13:00,75.3,73.0,30.03,ESE,115,0.0,1.0,91,0.00,,,0.00,0,weatherlink.com 1.10,2013-06-25 07:13:00,
2013-06-25 03:28:00,75.3,73.0,30.04,ESE,115,0.0,0.0,92,0.00,,,0.00,0,weatherlink.com 1.10,2013-06-25 07:28:00,
2013-06-25 03:45:00,75.4,73.0,30.02,ESE,115,0.0,0.0,92,0.00,,,0.00,0,weatherlink.com 1.10,2013-06-25 07:45:00,
2013-06-25 04:00:00,75.4,73.0,30.03,ESE,115,0.0,0.0,92,0.00,,,0.00,0,weatherlink.com 1.10,2013-06-25 08:00:00,
2013-06-25 04:15:00,75.4,73.0,30.03,ESE,115,0.0,0.0,92,0.00,,,0.00,0,weatherlink.com 1.10,2013-06-25 08:15:00,
2013-06-25 04:30:00,75.3,73.0,30.03,ESE,115,0.0,0.0,92,0.00,,,0.00,0,weatherlink.com 1.10,2013-06-25 08:30:00,
2013-06-25 04:44:00,75.1,73.0,30.03,ESE,115,0.0,0.0,92,0.00,,,0.00,0,weatherlink.com 1.10,2013-06-25 08:44:00,
2013-06-25 05:00:00,74.7,73.0,30.03,ESE,115,0.0,0.0,93,0.00,,,0.00,0,weatherlink.com 1.10,2013-06-25 09:00:00,
2013-06-25 05:15:00,74.4,72.0,30.04,ESE,115,0.0,0.0,92,0.00,,,0.00,0,weatherlink.com 1.10,2013-06-25 09:15:00,
2013-06-25 05:30:00,74.0,72.0,30.04,ESE,115,0.0,0.0,93,0.00,,,0.00,0,weatherlink.com 1.10,2013-06-25 09:30:00,
2013-06-25 05:45:00,73.9,72.0,30.04,ESE,115,0.0,0.0,93,0.00,,,0.00,0,weatherlink.com 1.10,2013-06-25 09:45:00,
2013-06-25 06:00:00,73.7,72.0,30.05,ESE,115,0.0,0.0,93,0.00,,,0.00,0,weatherlink.com 1.10,2013-06-25 10:00:00,
2013-06-25 06:15:00,73.5,71.0,30.05,ESE,115,0.0,0.0,93,0.00,,,0.00,0,weatherlink.com 1.10,2013-06-25 10:15:00,
2013-06-25 06:30:00,73.5,71.0,30.05,ESE,115,0.0,0.0,93,0.00,,,0.00,0,weatherlink.com 1.10,2013-06-25 10:30:00,
2013-06-25 06:45:00,73.3,71.0,30.05,ESE,115,0.0,0.0,93,0.00,,,0.00,11,weatherlink.com 1.10,2013-06-25 10:45:00,
2013-06-25 07:00:00,73.3,72.0,30.06,ESE,115,0.0,0.0,94,0.00,,,0.00,23,weatherlink.com 1.10,2013-06-25 11:00:00,
2013-06-25 07:15:00,73.7,72.0,30.06,ESE,115,0.0,0.0,94,0.00,,,0.00,30,weatherlink.com 1.10,2013-06-25 11:15:00,
2013-06-25 07:31:00,74.0,72.0,30.07,ESE,115,0.0,0.0,94,0.00,,,0.00,21,weatherlink.com 1.10,2013-06-25 11:31:00,
2013-06-25 07:46:00,74.4,73.0,30.07,ESE,115,0.0,0.0,95,0.00,,,0.00,33,weatherlink.com 1.10,2013-06-25 11:46:00,
2013-06-25 08:00:00,74.7,73.0,30.07,ESE,115,0.0,0.0,95,0.00,,,0.00,218,weatherlink.com 1.10,2013-06-25 12:00:00,
2013-06-25 08:16:00,76.3,75.0,30.07,ESE,115,0.0,0.0,96,0.00,,,0.00,149,weatherlink.com 1.10,2013-06-25 12:16:00,
2013-06-25 08:31:00,77.2,76.0,30.08,ESE,115,0.0,0.0,95,0.00,,,0.00,204,weatherlink.com 1.10,2013-06-25 12:31:00,
2013-06-25 08:46:00,78.1,77.0,30.08,South,182,0.0,3.0,95,0.00,,,0.00,181,weatherlink.com 1.10,2013-06-25 12:46:00,
2013-06-25 09:00:00,78.8,77.0,30.09,SSW,192,0.0,2.0,93,0.00,,,0.00,257,weatherlink.com 1.10,2013-06-25 13:00:00,
2013-06-25 09:16:00,79.9,77.0,30.08,SSW,192,0.0,2.0,90,0.00,,,0.00,468,weatherlink.com 1.10,2013-06-25 13:16:00,
2013-06-25 09:31:00,81.2,76.0,30.08,WSW,239,0.0,1.0,84,0.00,,,0.00,522,weatherlink.com 1.10,2013-06-25 13:31:00,
2013-06-25 09:46:00,83.4,75.0,30.08,SW,221,0.0,1.0,76,0.00,,,0.00,594,weatherlink.com 1.10,2013-06-25 13:46:00,
2013-06-25 10:01:00,84.9,73.0,30.07,South,190,3.0,6.0,68,0.00,,,0.00,598,weatherlink.com 1.10,2013-06-25 14:01:00,
2013-06-25 10:16:00,86.3,73.0,30.08,SW,224,0.0,1.0,64,0.00,,,0.00,643,weatherlink.com 1.10,2013-06-25 14:16:00,
2013-06-25 10:31:00,87.6,72.0,30.07,WSW,257,3.0,4.0,61,0.00,,,0.00,694,weatherlink.com 1.10,2013-06-25 14:31:00,
2013-06-25 10:46:00,88.4,72.0,30.08,WSW,250,0.0,3.0,58,0.00,,,0.00,745,weatherlink.com 1.10,2013-06-25 14:46:00,
2013-06-25 11:02:00,88.8,70.0,30.08,WSW,251,0.0,6.0,54,0.00,,,0.00,186,weatherlink.com 1.10,2013-06-25 15:02:00,
2013-06-25 11:18:00,88.6,70.0,30.08,West,260,0.0,3.0,54,0.00,,,0.00,824,weatherlink.com 1.10,2013-06-25 15:18:00,
2013-06-25 11:34:00,89.3,71.0,30.08,SSW,205,0.0,3.0,55,0.00,,,0.00,687,weatherlink.com 1.10,2013-06-25 15:34:00,
2013-06-25 11:49:00,89.5,70.0,30.07,SSW,208,0.0,4.0,53,0.00,,,0.00,879,weatherlink.com 1.10,2013-06-25 15:49:00,
2013-06-25 12:02:00,89.9,71.0,30.07,SW,234,0.0,4.0,54,0.00,,,0.00,909,weatherlink.com 1.10,2013-06-25 16:02:00,
2013-06-25 12:19:00,90.3,72.0,30.07,SSW,205,2.0,3.0,55,0.00,,,0.00,1013,weatherlink.com 1.10,2013-06-25 16:19:00,
2013-06-25 12:34:00,90.7,72.0,30.06,West,275,0.0,4.0,54,0.00,,,0.00,960,weatherlink.com 1.10,2013-06-25 16:34:00,
2013-06-25 12:49:00,91.4,71.0,30.06,NNW,331,5.0,5.0,51,0.00,,,0.00,991,weatherlink.com 1.10,2013-06-25 16:49:00,
2013-06-25 13:04:00,91.4,71.0,30.05,WNW,291,0.0,3.0,51,0.00,,,0.00,956,weatherlink.com 1.10,2013-06-25 17:04:00,
2013-06-25 13:19:00,91.4,70.0,30.05,West,263,0.0,3.0,50,0.00,,,0.00,970,weatherlink.com 1.10,2013-06-25 17:19:00,
2013-06-25 13:34:00,92.3,72.0,30.04,West,271,0.0,3.0,51,0.00,,,0.00,969,weatherlink.com 1.10,2013-06-25 17:34:00,
2013-06-25 13:49:00,92.9,70.0,30.03,West,259,0.0,4.0,48,0.00,,,0.00,1030,weatherlink.com 1.10,2013-06-25 17:49:00,
2013-06-25 14:04:00,92.1,68.0,30.02,NW,323,0.0,4.0,46,0.00,,,0.00,229,weatherlink.com 1.10,2013-06-25 18:04:00,
2013-06-25 14:19:00,92.5,69.0,30.02,WNW,300,0.0,3.0,47,0.00,,,0.00,956,weatherlink.com 1.10,2013-06-25 18:19:00,
2013-06-25 14:34:00,91.8,69.0,30.02,WNW,290,0.0,3.0,47,0.00,,,0.00,1002,weatherlink.com 1.10,2013-06-25 18:34:00,
2013-06-25 14:48:00,92.7,72.0,30.02,SE,131,0.0,4.0,51,0.00,,,0.00,269,weatherlink.com 1.10,2013-06-25 18:48:00,
2013-06-25 15:04:00,92.3,72.0,30.02,SE,125,0.0,1.0,51,0.00,,,0.00,726,weatherlink.com 1.10,2013-06-25 19:04:00,
2013-06-25 15:19:00,92.1,73.0,30.01,East,92,0.0,7.0,53,0.00,,,0.00,90,weatherlink.com 1.10,2013-06-25 19:19:00,
2013-06-25 15:34:00,89.7,72.0,30.00,ESE,115,0.0,8.0,57,0.00,,,0.00,153,weatherlink.com 1.10,2013-06-25 19:34:00,
2013-06-25 15:49:00,87.8,72.0,30.01,East,88,0.0,6.0,60,0.00,,,0.00,91,weatherlink.com 1.10,2013-06-25 19:49:00,
2013-06-25 16:04:00,86.7,72.0,29.99,ESE,103,0.0,3.0,61,0.00,,,0.00,120,weatherlink.com 1.10,2013-06-25 20:04:00,
2013-06-25 16:19:00,86.7,74.0,30.00,ENE,58,0.0,3.0,67,0.01,,,0.01,225,weatherlink.com 1.10,2013-06-25 20:19:00,
2013-06-25 16:34:00,87.0,77.0,30.00,ENE,58,0.0,1.0,72,0.01,,,0.01,768,weatherlink.com 1.10,2013-06-25 20:34:00,
2013-06-25 16:49:00,85.9,72.0,29.99,SE,130,3.0,7.0,63,0.01,,,0.01,413,weatherlink.com 1.10,2013-06-25 20:49:00,
2013-06-25 17:04:00,86.3,71.0,29.99,ESE,103,1.0,8.0,60,0.01,,,0.01,443,weatherlink.com 1.10,2013-06-25 21:04:00,
2013-06-25 17:20:00,86.5,71.0,29.99,ESE,109,0.0,7.0,61,0.00,,,0.01,294,weatherlink.com 1.10,2013-06-25 21:20:00,
2013-06-25 17:34:00,86.1,72.0,29.98,East,96,0.0,7.0,62,0.00,,,0.01,223,weatherlink.com 1.10,2013-06-25 21:34:00,
2013-06-25 17:50:00,85.7,71.0,29.97,ESE,119,0.0,7.0,62,0.00,,,0.01,179,weatherlink.com 1.10,2013-06-25 21:50:00,
2013-06-25 18:05:00,85.3,71.0,29.98,East,98,0.0,7.0,62,0.00,,,0.01,137,weatherlink.com 1.10,2013-06-25 22:05:00,
2013-06-25 18:20:00,84.9,71.0,29.99,ESE,114,2.0,4.0,63,0.00,,,0.01,109,weatherlink.com 1.10,2013-06-25 22:20:00,
2013-06-25 18:35:00,84.5,71.0,30.00,SE,131,0.0,5.0,65,0.00,,,0.01,77,weatherlink.com 1.10,2013-06-25 22:35:00,
2013-06-25 18:50:00,83.8,72.0,29.99,ESE,117,0.0,4.0,67,0.00,,,0.01,65,weatherlink.com 1.10,2013-06-25 22:50:00,
2013-06-25 19:06:00,83.2,72.0,29.99,East,94,0.0,4.0,69,0.00,,,0.01,62,weatherlink.com 1.10,2013-06-25 23:06:00,
2013-06-25 19:20:00,82.8,73.0,30.00,East,99,5.0,5.0,71,0.00,,,0.01,54,weatherlink.com 1.10,2013-06-25 23:20:00,
2013-06-25 19:36:00,82.2,73.0,30.00,ESE,113,0.0,4.0,73,0.00,,,0.01,32,weatherlink.com 1.10,2013-06-25 23:36:00,
2013-06-25 19:50:00,82.0,73.0,30.02,North,355,0.0,3.0,74,0.00,,,0.01,19,weatherlink.com 1.10,2013-06-25 23:50:00,
2013-06-25 20:06:00,81.8,73.0,30.01,ENE,73,0.0,3.0,75,0.00,,,0.01,12,weatherlink.com 1.10,2013-06-26 00:06:00,
2013-06-25 20:20:00,81.4,73.0,30.00,East,92,0.0,3.0,76,0.00,,,0.01,0,weatherlink.com 1.10,2013-06-26 00:20:00,
2013-06-25 20:36:00,81.1,73.0,30.00,East,101,0.0,5.0,77,0.00,,,0.01,0,weatherlink.com 1.10,2013-06-26 00:36:00,
2013-06-25 20:50:00,80.7,73.0,29.99,East,101,0.0,3.0,78,0.00,,,0.01,0,weatherlink.com 1.10,2013-06-26 00:50:00,
2013-06-25 21:05:00,80.5,73.0,30.00,East,101,0.0,0.0,79,0.00,,,0.01,0,weatherlink.com 1.10,2013-06-26 01:05:00,
2013-06-25 21:20:00,80.1,73.0,30.00,East,101,0.0,0.0,79,0.00,,,0.01,0,weatherlink.com 1.10,2013-06-26 01:20:00,
2013-06-25 21:35:00,79.9,74.0,30.00,East,101,0.0,1.0,81,0.00,,,0.01,0,weatherlink.com 1.10,2013-06-26 01:35:00,
2013-06-25 21:52:00,79.6,73.0,30.01,East,101,0.0,1.0,81,0.00,,,0.01,0,weatherlink.com 1.10,2013-06-26 01:52:00,
2013-06-25 22:05:00,79.4,74.0,30.01,East,101,0.0,0.0,82,0.00,,,0.01,0,weatherlink.com 1.10,2013-06-26 02:05:00,
2013-06-25 22:22:00,79.2,73.0,30.02,East,101,0.0,0.0,82,0.00,,,0.01,0,weatherlink.com 1.10,2013-06-26 02:22:00,
2013-06-25 22:37:00,79.0,74.0,30.02,East,101,0.0,0.0,83,0.00,,,0.01,0,weatherlink.com 1.10,2013-06-26 02:37:00,
2013-06-25 22:52:00,79.0,74.0,30.02,East,101,0.0,0.0,83,0.00,,,0.01,0,weatherlink.com 1.10,2013-06-26 02:52:00,
2013-06-25 23:07:00,78.6,73.0,30.02,East,101,0.0,0.0,84,0.00,,,0.01,0,weatherlink.com 1.10,2013-06-26 03:07:00,
2013-06-25 23:22:00,78.6,73.0,30.02,East,101,0.0,0.0,84,0.00,,,0.01,0,weatherlink.com 1.10,2013-06-26 03:22:00,
2013-06-25 23:37:00,78.3,74.0,30.02,East,101,0.0,0.0,85,0.00,,,0.01,0,weatherlink.com 1.10,2013-06-26 03:37:00,
2013-06-25 23:52:00,78.1,73.0,30.02,East,101,0.0,0.0,85,0.00,,,0.01,0,weatherlink.com 1.10,2013-06-26 03:52:00,